Lid_Strength_Index
2 2 3 3 3 3 3 3 3 4 4 4 4 4 4 4 4 4 4 4 4 4 4 4 3 3 4 6 6 1 -3 -2 1 6 9 8 6 7 9 7 7 9 8 7 6 6 7
1 2 2 3 3 3 3 3 3 3 4 4 4 4 4 4 4 4 4 4 4 4 3 3 3 3 6 8 1 0 0 0 3 7 9 7 5 6 8 7 8 8 8 7 6 7 7
1 1 2 2 3 3 3 3 3 4 4 4 4 4 4 4 4 4 4 4 4 4 3 2 2 3 6 6 2 0 2 4 5 7 9 6 3 6 7 7 6 7 10 8 8 8 8
1 1 1 2 2 3 4 3 3 4 4 4 4 4 4 4 4 4 4 4 4 3 3 2 2 4 7 1 2 2 2 5 5 6 7 5 3 6 8 7 7 9 10 14 9 8 8
1 1 1 2 3 3 3 4 4 4 4 3 3 4 4 4 4 4 4 4 3 2 2 2 4 5 6 2 5 3 3 4 5 5 7 6 5 8 8 10 12 11 15 14 12 8 9
2 2 2 2 3 3 3 3 4 4 3 3 4 4 4 4 4 4 4 3 3 2 1 1 2 6 4 4 4 3 2 3 5 4 5 7 8 11 11 13 15 14 14 13 14 10 9
2 2 2 3 3 3 4 3 4 4 3 3 4 4 4 4 4 4 4 5 5 6 3 6 5 5 3 3 2 3 2 4 5 6 9 8 12 13 12 11 11 9 12 13 12 9 11
2 2 3 3 3 3 3 4 4 3 3 4 4 4 4 4 4 4 5 6 4 4 7 3 3 3 3 4 5 4 4 6 7 9 7 10 12 10 9 9 10 11 12 14 11 10 10
2 3 3 3 3 3 3 4 4 3 4 4 4 4 4 4 4 5 5 4 2 2 7 5 4 5 4 4 5 5 6 7 8 9 9 11 11 8 9 10 10 11 13 13 13 11 10
3 3 3 3 3 3 3 4 3 3 4 4 4 4 4 5 6 3 3 2 2 3 10 7 7 5 4 5 6 3 5 7 8 9 8 9 8 9 10 10 11 13 10 10 12 13 17
3 4 4 3 4 3 4 4 4 3 4 4 4 4 4 4 6 4 3 2 2 4 16 6 6 3 4 6 6 5 3 6 8 7 9 10 9 11 11 9 9 12 9 11 11 13 14
3 4 3 3 4 3 4 4 4 4 4 4 4 4 4 4 5 3 2 2 4 11 14 8 5 6 7 6 6 5 5 6 5 7 7 8 6 8 10 7 7 8 11 11 12 14 18
3 4 3 3 4 3 4 4 4 5 4 4 4 4 5 3 3 2 2 5 11 15 7 8 8 7 7 8 7 6 7 9 10 13 12 8 8 7 7 10 8 9 13 19 20 19 19
3 3 3 3 4 3 4 3 4 5 4 4 5 5 4 3 2 2 4 8 14 9 9 7 7 7 8 7 8 8 8 9 8 9 11 12 13 9 6 9 10 10 11 16 22 21 19
4 3 4 3 4 3 3 3 4 5 5 4 5 3 3 1 2 2 6 12 11 9 7 7 8 9 9 7 8 8 9 10 8 8 12 12 12 8 6 6 8 11 12 9 15 15 18
4 3 4 3 3 4 3 3 4 5 5 4 4 2 2 -0 0 2 8 11 8 6 6 7 10 8 10 8 9 9 9 8 8 6 7 10 13 8 7 7 7 9 8 13 13 19 21
3 4 4 3 3 4 3 3 4 5 5 5 3 5 2 1 1 5 10 9 8 5 5 7 8 9 9 9 9 11 10 8 6 7 7 9 11 10 8 10 10 11 12 12 12 12 17
3 3 3 3 3 4 3 3 5 5 5 5 3 7 1 3 6 6 8 8 8 6 5 6 6 7 8 8 10 11 11 8 5 6 9 8 11 13 11 7 7 9 11 12 14 14 13
3 2 2 3 3 4 4 3 5 6 5 4 5 5 1 3 9 8 7 7 6 7 6 6 7 6 7 8 12 10 9 6 5 6 9 8 11 14 13 11 9 11 10 12 12 13 15
2 2 2 2 3 3 4 4 5 6 5 5 5 8 4 4 4 7 7 6 7 5 6 5 6 6 7 9 8 10 9 6 5 6 6 6 11 13 14 12 9 11 9 9 12 15 14
3 3 2 2 3 3 3 4 4 5 6 4 4 6 5 8 7 6 6 6 7 7 6 5 6 7 8 11 10 10 8 8 6 6 6 9 12 11 10 9 9 9 9 9 11 11 13
4 3 3 2 2 2 3 3 4 5 6 3 6 6 5 6 5 5 7 7 7 6 6 8 7 7 7 10 9 10 9 9 10 7 8 8 12 12 13 10 9 10 9 10 10 12 11
4 4 4 3 2 2 2 3 3 4 5 3 2 2 5 7 6 7 6 6 7 6 5 5 6 6 7 7 6 7 6 7 7 9 10 10 12 13 16 11 11 13 12 11 11 11 12
4 4 3 4 3 2 2 2 3 3 4 5 3 3 6 9 7 7 6 6 6 6 6 5 5 6 5 5 5 5 6 7 7 7 7 10 12 13 16 14 19 12 8 8 10 10 9
3 3 3 3 4 3 2 3 3 2 4 6 3 3 6 9 7 6 5 5 5 5 6 7 4 5 4 5 8 11 11 10 9 8 8 7 10 14 17 17 14 11 10 10 11 12 8
3 3 3 3 3 4 3 3 2 2 4 5 4 2 4 7 8 5 6 5 7 7 7 5 4 4 5 7 9 14 16 13 13 11 8 8 9 12 14 18 20 13 8 7 8 15 8
2 2 2 2 2 3 3 3 2 2 3 5 4 2 3 7 5 4 6 6 4 6 7 6 5 6 5 8 11 14 15 10 14 14 13 13 13 15 14 16 14 9 7 6 14 13 7
2 2 2 1 2 3 3 3 3 2 2 5 5 3 3 5 4 3 3 4 5 5 8 6 7 7 7 10 11 13 13 12 13 11 12 14 15 15 14 16 17 6 7 11 9 7 7
2 2 2 1 1 2 2 3 3 3 2 4 6 1 2 4 5 2 2 2 3 3 5 5 7 6 7 9 9 9 11 11 11 16 9 13 12 14 12 13 8 6 7 6 5 6 6